Location: Fontevrault
(47.1823°N, 0.0493°E)
Time: 18:10:14
(UTC+00:00)

Cosmos 1459 Rocket - Pass Details

Date: 26 October 2021
Orbit: 936 x 1000 km, 83.0° (Epoch: 27 November)

Event Time Altitude Azimuth Distance (km) Brightness Sun altitude
Rises 05:29:56 0° 356° (N) 3,610 6.9 -11.5°
Reaches altitude 10° 05:32:37 10° 5° (N) 2,660 6.3 -11.0°
Maximum altitude 05:38:14 38° 73° (ENE) 1,392 5.5 -10.1°
Drops below altitude 10° 05:43:50 10° 140° (SE) 2,653 7.1 -9.1°
Sets 05:46:30 0° 148° (SSE) 3,600 7.6 -8.7°
